Flag for U.S.A. Weather past 2 weeks in Grand Prairie, Texas, U.S.A.

Now
47 °F

Overcast.


Feels Like: 43 °F
Forecast: 42 / 55 °F
Wind: 8 mph from North

Location: Grand Prairie Municipal Airport

Current Time: Dec 19, 2014 at 11:25:15 PM

Latest Report: Dec 19, 2014 at 10:55 PM


Visibility: 7 mi

Pressure: 30.23 "Hg

Humidity: 95%

Dew point: 46 °F

Location of Grand PrairieLocation

Historic Weather in Grand Prairie — Graph

°F

Grand Prairie temperature yesterday

Maximum temperature yesterday: 48 °F (at 8:15 PM)
Minimum temperature yesterday: 42 °F (at 12:15 AM)
Average temperature yesterday: 45 °F

Past Weeks' High & Low Weather Summary

 TemperatureHumidityPressure
High77 °F (Dec 5, 2:50 PM)100% (Dec 5, 1:35 AM)30.43 "Hg (Dec 5, 1:35 AM)
Low41 °F (Dec 9, 7:50 AM)34% (Dec 15, 2:50 PM)29.82 "Hg (Dec 14, 3:50 PM)
Average53 °F85%30.20 "Hg
* Reported Dec 4 10:15 PM — Dec 19 10:15 PM, Grand Prairie, Weather by CustomWeather, © 2014

Note: Actual official high and low records may vary slightly from our data, if they occured in-between our weather recording intervals... More about our weather records

Advertising

Grand Prairie weather history for previous 24 hours

 ConditionsComfort  
Time TempWeatherWind HumidityBarometerVisibility
10:15 PM
Dec 19
47 °FOvercast.8 mph95%30.23 "Hg7 mi
9:55 PM47 °FOvercast.12 mph96%30.23 "Hg7 mi
9:35 PM47 °FOvercast.8 mph96%30.23 "Hg7 mi
8:55 PM48 °FMostly cloudy.7 mph94%30.22 "Hg7 mi
8:35 PM48 °FOvercast.7 mph94%30.21 "Hg7 mi
8:15 PM48 °FOvercast.6 mph96%30.20 "Hg7 mi
7:55 PM48 °FMostly cloudy.6 mph95%30.20 "Hg7 mi
7:15 PM48 °FMostly cloudy.6 mph96%30.20 "Hg7 mi
4:50 PM48 °FFog.7 mph94%30.18 "Hg5 mi
3:50 PM48 °FOvercast.7 mph94%30.17 "Hg7 mi
2:50 PM48 °FFog.7 mph94%30.16 "Hg7 mi
1:50 PM48 °FFog.12 mph94%30.16 "Hg5 mi
12:50 PM46 °FLow clouds.12 mph100%30.17 "Hg7 mi
11:50 AM46 °FFog.12 mph100%30.19 "Hg5 mi
10:50 AM46 °FLow clouds.12 mph100%30.21 "Hg7 mi
9:50 AM46 °FFog.9 mph100%30.21 "Hg5 mi
8:50 AM46 °FFog.12 mph100%30.20 "Hg5 mi
7:50 AM45 °FFog.N/A100%30.18 "Hg4 mi
5:35 AM46 °FLow clouds.10 mph100%30.16 "Hg5 mi
5:15 AM46 °FLow clouds.7 mph100%30.16 "Hg5 mi
4:55 AM46 °FLow clouds.7 mph100%30.20 "Hg7 mi
4:35 AM46 °FLow clouds.7 mph100%30.23 "Hg7 mi
4:15 AM46 °FLow clouds.6 mph97%30.19 "Hg7 mi
3:55 AM46 °FLow clouds.No wind99%30.16 "Hg7 mi
3:35 AM46 °FLow clouds.7 mph100%30.13 "Hg7 mi
3:15 AM46 °FLow clouds.10 mph100%30.12 "Hg7 mi
2:55 AM46 °FLow clouds.8 mph100%30.15 "Hg7 mi
2:15 AM47 °FLow clouds.8 mph96%30.16 "Hg7 mi
1:55 AM47 °FLow clouds.6 mph96%30.17 "Hg7 mi
1:35 AM47 °FLow clouds.8 mph97%30.16 "Hg7 mi
1:15 AM46 °FLow clouds.6 mph100%30.16 "Hg7 mi
12:55 AM47 °FLow clouds.7 mph97%30.17 "Hg10 mi
12:15 AM47 °FMostly cloudy.8 mph95%30.17 "Hg10 mi
11:55 PM
Dec 18
47 °FLow clouds.6 mph96%30.18 "Hg7 mi
11:35 PM47 °FMostly cloudy.9 mph96%30.17 "Hg7 mi
11:15 PM47 °FOvercast.8 mph92%30.17 "Hg10 mi
Weather by CustomWeather, © 2014

See weather overviewHow to use our weather pages